TimeCST,TemperatureF,Dew PointF,Humidity,Sea Level PressureIn,VisibilityMPH,Wind Direction,Wind SpeedMPH,Gust SpeedMPH,PrecipitationIn,Events,Conditions,WindDirDegrees,DateUTC
12:15 AM,28.4,24.8,86,29.77,10.0,WNW,27.6,46.0,N/A,,Overcast,300,2013-01-09 06:15:00
12:35 AM,26.6,23.0,86,29.76,9.0,WNW,34.5,48.3,N/A,,Overcast,290,2013-01-09 06:35:00
12:55 AM,26.6,24.8,93,29.79,10.0,WNW,26.5,35.7,N/A,,Overcast,290,2013-01-09 06:55:00
1:35 AM,26.6,23.0,86,29.81,10.0,WNW,29.9,43.7,N/A,,Overcast,290,2013-01-09 07:35:00
1:55 AM,24.8,23.0,93,29.82,10.0,WNW,29.9,39.1,N/A,,Mostly Cloudy,290,2013-01-09 07:55:00
2:15 AM,24.8,21.2,86,29.84,7.0,WNW,38.0,46.0,N/A,,Mostly Cloudy,300,2013-01-09 08:15:00
2:35 AM,24.8,21.2,86,29.85,10.0,WNW,34.5,46.0,N/A,,Mostly Cloudy,300,2013-01-09 08:35:00
2:55 AM,23.0,19.4,86,29.87,10.0,WNW,25.3,39.1,N/A,,Partly Cloudy,290,2013-01-09 08:55:00
3:15 AM,23.0,19.4,86,29.89,10.0,WNW,23.0,40.3,N/A,,Clear,290,2013-01-09 09:15:00
3:35 AM,23.0,19.4,86,29.90,10.0,WNW,21.9,33.4,N/A,,Clear,290,2013-01-09 09:35:00
3:55 AM,21.2,17.6,86,29.92,10.0,WNW,20.7,29.9,N/A,,Clear,290,2013-01-09 09:55:00
4:15 AM,21.2,17.6,86,29.94,10.0,WNW,20.7,27.6,N/A,,Clear,290,2013-01-09 10:15:00
4:55 AM,19.4,17.6,93,29.95,10.0,West,23.0,27.6,N/A,,Clear,280,2013-01-09 10:55:00
5:15 AM,21.2,17.6,86,29.96,10.0,West,26.5,-,N/A,,Clear,280,2013-01-09 11:15:00
5:35 AM,19.4,17.6,93,29.97,10.0,West,20.7,27.6,N/A,,Clear,280,2013-01-09 11:35:00
5:55 AM,19.4,17.6,93,29.99,10.0,WNW,21.9,29.9,N/A,,Clear,290,2013-01-09 11:55:00
6:15 AM,19.4,17.6,93,30.00,10.0,WNW,18.4,-,N/A,,Clear,290,2013-01-09 12:15:00
6:35 AM,19.4,17.6,93,30.03,10.0,WNW,18.4,24.2,N/A,,Clear,290,2013-01-09 12:35:00
6:55 AM,19.4,17.6,93,30.03,10.0,WNW,18.4,25.3,N/A,,Clear,300,2013-01-09 12:55:00
7:35 AM,17.6,15.8,93,30.05,10.0,WNW,16.1,-,N/A,,Clear,300,2013-01-09 13:35:00
7:55 AM,17.6,15.8,93,30.06,10.0,NW,13.8,-,N/A,,Clear,310,2013-01-09 13:55:00
8:15 AM,17.6,15.8,93,30.07,10.0,WNW,11.5,18.4,N/A,,Clear,300,2013-01-09 14:15:00
8:35 AM,17.6,15.8,93,30.08,10.0,WNW,11.5,-,N/A,,Clear,290,2013-01-09 14:35:00
8:55 AM,15.8,14.0,93,30.10,10.0,West,11.5,-,N/A,,Clear,280,2013-01-09 14:55:00
9:15 AM,15.8,14.0,93,30.12,10.0,West,11.5,-,N/A,,Clear,280,2013-01-09 15:15:00
9:35 AM,15.8,14.0,93,30.12,10.0,WNW,6.9,-,N/A,,Clear,290,2013-01-09 15:35:00
9:55 AM,17.6,15.8,93,30.12,10.0,WNW,10.4,-,N/A,,Clear,290,2013-01-09 15:55:00
10:15 AM,17.6,15.8,93,30.13,10.0,WNW,10.4,-,N/A,,Clear,290,2013-01-09 16:15:00
10:55 AM,19.4,15.8,86,30.15,10.0,West,6.9,-,N/A,,Clear,270,2013-01-09 16:55:00
11:15 AM,19.4,17.6,93,30.14,10.0,WSW,8.1,-,N/A,,Clear,250,2013-01-09 17:15:00
11:35 AM,19.4,17.6,93,30.12,10.0,WSW,6.9,-,N/A,,Clear,250,2013-01-09 17:35:00
11:55 AM,19.4,17.6,93,30.11,10.0,WSW,3.5,-,N/A,,Clear,240,2013-01-09 17:55:00
12:15 PM,21.2,17.6,86,30.11,10.0,West,6.9,-,N/A,,Scattered Clouds,270,2013-01-09 18:15:00
12:35 PM,23.0,17.6,80,30.11,10.0,WSW,5.8,-,N/A,,Overcast,240,2013-01-09 18:35:00
12:55 PM,23.0,17.6,80,30.11,10.0,Calm,Calm,-,N/A,,Overcast,0,2013-01-09 18:55:00
1:15 PM,23.0,19.4,86,30.10,10.0,Calm,Calm,-,N/A,,Overcast,0,2013-01-09 19:15:00
1:35 PM,24.8,19.4,80,30.11,10.0,SSW,9.2,-,N/A,,Overcast,200,2013-01-09 19:35:00
1:55 PM,23.0,21.2,93,30.13,10.0,SSW,8.1,-,N/A,,Overcast,200,2013-01-09 19:55:00
2:15 PM,24.8,21.2,86,30.13,10.0,SSW,9.2,-,N/A,,Overcast,200,2013-01-09 20:15:00
2:35 PM,24.8,21.2,86,30.12,10.0,South,8.1,-,N/A,,Overcast,170,2013-01-09 20:35:00
2:55 PM,24.8,23.0,93,30.13,10.0,SSE,6.9,-,N/A,,Overcast,160,2013-01-09 20:55:00
3:15 PM,24.8,23.0,93,30.14,10.0,South,13.8,-,N/A,,Mostly Cloudy,170,2013-01-09 21:15:00
3:35 PM,24.8,23.0,93,30.13,10.0,SSE,13.8,-,N/A,,Scattered Clouds,160,2013-01-09 21:35:00
3:55 PM,24.8,21.2,86,30.12,10.0,SSE,12.7,-,N/A,,Clear,150,2013-01-09 21:55:00
4:15 PM,24.8,23.0,93,30.10,10.0,SSE,13.8,-,N/A,,Clear,150,2013-01-09 22:15:00
4:35 PM,24.8,21.2,86,30.10,10.0,SSE,13.8,-,N/A,,Clear,160,2013-01-09 22:35:00
4:55 PM,23.0,21.2,93,30.10,10.0,SSE,13.8,-,N/A,,Clear,160,2013-01-09 22:55:00
5:15 PM,23.0,21.2,93,30.08,10.0,SSE,12.7,-,N/A,,Clear,160,2013-01-09 23:15:00
5:35 PM,23.0,21.2,93,30.06,10.0,SSE,13.8,-,N/A,,Clear,160,2013-01-09 23:35:00
5:55 PM,23.0,23.0,100,30.05,10.0,SSE,16.1,-,N/A,,Clear,160,2013-01-09 23:55:00
6:15 PM,24.8,21.2,86,30.03,10.0,SSE,15.0,-,N/A,,Clear,160,2013-01-10 00:15:00
6:35 PM,23.0,21.2,93,30.04,10.0,South,15.0,-,N/A,,Clear,170,2013-01-10 00:35:00
6:55 PM,23.0,23.0,100,30.03,10.0,SSE,17.3,-,N/A,,Clear,160,2013-01-10 00:55:00
7:15 PM,23.0,23.0,100,30.01,10.0,SSE,18.4,-,N/A,,Clear,160,2013-01-10 01:15:00
7:35 PM,24.8,23.0,93,30.00,10.0,SSE,19.6,-,N/A,,Clear,160,2013-01-10 01:35:00
8:15 PM,24.8,23.0,93,29.98,10.0,South,19.6,-,N/A,,Clear,180,2013-01-10 02:15:00
8:35 PM,24.8,23.0,93,29.97,10.0,South,17.3,-,N/A,,Clear,180,2013-01-10 02:35:00
8:55 PM,24.8,23.0,93,29.96,10.0,South,20.7,-,N/A,,Clear,180,2013-01-10 02:55:00
9:15 PM,26.6,23.0,86,29.94,10.0,South,23.0,28.8,N/A,,Clear,180,2013-01-10 03:15:00
9:35 PM,26.6,23.0,86,29.95,10.0,South,19.6,-,N/A,,Clear,180,2013-01-10 03:35:00
9:55 PM,24.8,23.0,93,29.95,10.0,South,20.7,25.3,N/A,,Clear,180,2013-01-10 03:55:00
10:15 PM,24.8,23.0,93,29.95,10.0,South,21.9,-,N/A,,Clear,180,2013-01-10 04:15:00
10:35 PM,24.8,23.0,93,29.96,10.0,SSW,17.3,-,N/A,,Clear,200,2013-01-10 04:35:00
10:55 PM,24.8,23.0,93,29.95,10.0,South,10.4,-,N/A,,Clear,190,2013-01-10 04:55:00
11:35 PM,23.0,23.0,100,29.94,10.0,South,8.1,-,N/A,,Clear,170,2013-01-10 05:35:00
11:55 PM,23.0,23.0,100,29.93,10.0,SSE,11.5,-,N/A,,Clear,160,2013-01-10 05:55:00